Location: Poughquag
(41.6090°N, 73.6820°W)
Time: 12:44:28
(UTC-04:00)

Tiros 1 - Pass Details

Date: 31 May 2020
Orbit: 630 x 664 km, 48.4° (Epoch: 06 July)

Event Time Altitude Azimuth Distance (km) Brightness Sun altitude
Rises 15:19:41 0° 275° (W) 2,963 11.0 53.6°
Reaches altitude 10° 15:22:11 10° 284° (WNW) 2,047 10.4 53.1°
Maximum altitude 15:26:34 37° 352° (N) 995 8.5 52.3°
Drops below altitude 10° 15:30:55 10° 61° (ENE) 2,028 9.4 51.6°
Sets 15:33:23 0° 69° (ENE) 2,932 10.1 51.1°
